Regional Weather Roundup
Issued by NWS Newport/Morehead, NC

Current Version | Previous Version | Graphics & Text | Print | Product List | Glossary Off
Versions: 1 2 3 4 5 6 7 8 9 10 11 12 13 14 15 16 17 18 19 20 21 22 23 24 25 26 27 28 29 30 31 32 33 34 35 36 37 38 39 40 41 42 43 44 45 46 47 48 49 50

000
ASUS42 KMHX 260913
RWRMHX
WEATHER ROUNDUP FOR EASTERN NORTH CAROLINA
NATIONAL WEATHER SERVICE NEWPORT/MOREHEAD CITY NC
500 AM EDT TUE SEP 26 2017

NOTE: "FAIR" INDICATES FEW OR NO CLOUDS BELOW 12,000 FEET
WITH NO SIGNIFICANT WEATHER AND/OR OBSTRUCTIONS TO VISIBILITY

NCZ015>017-031-032-045>047-102-103-261000-
NORTH COAST

CITY           SKY/WX    TMP DP  RH WIND       PRES   REMARKS
EDENTON        CLOUDY    73  72  95 CALM      29.86R FOG
ELIZABETH CITY CLOUDY    73  73 100 N14       29.84F FOG
KITTY HAWK     CLOUDY    71  71 100 NE10G23   29.80S FOG
MANTEO         CLOUDY    73  72  99 NE17G25   29.80F FOG

$$

NCZ045>047-081-094-103-104-261000-
CENTRAL COAST

CITY           SKY/WX    TMP DP  RH WIND       PRES   REMARKS
FRISCO         CLOUDY    77  75  93 NE14G31   29.70F

$$

NCZ095-097-098-100-101-261000-
SOUTHERN COAST

CITY           SKY/WX    TMP DP  RH WIND       PRES   REMARKS
BEAUFORT       CLOUDY    75  74  96 N20G29    29.75R
CEDAR ISLAND   NOT AVBL
JACKSONVILLE   CLOUDY    73  72  96 N13       29.79F
PINEY ISLAND     N/A    N/A N/A N/A N21G30    29.75S
WILMINGTON     CLOUDY    72  70  93 N10       29.80R


$$

NCZ011>013-027>030-043-044-078>080-089-090>093-098-261000-
COASTAL PLAIN

CITY           SKY/WX    TMP DP  RH WIND       PRES   REMARKS
AHOSKIE        CLOUDY    70  70 100 N9        29.88S FOG
CLINTON        CLOUDY    72  71  97 N5        29.86R
ELIZABETHTOWN  NOT AVBL
GOLDSBORO      CLOUDY    71  71 100 N10       29.84S
GREENVILLE     CLOUDY    72  72 100 N9        29.88S
HAVELOCK       CLOUDY    74  73  97 N17       29.79S
KENANSVILLE    CLOUDY    72  68  88 N12       29.85S
KINSTON        CLOUDY    71  69  93 N7G16     29.85S
NEW BERN       CLOUDY    73  72  96 N12G21    29.81F
RICHLANDS      CLOUDY    72  70  93 N8        29.82S
ROCKY MOUNT    CLOUDY    71  70  96 N10       29.88S
WASHINGTON     CLOUDY    72  70  96 N9        29.84R
WHITEVILLE     CLOUDY    72  69  90 N5        29.84S

$$

AMZ130-135-150-152-154-156-158-170-250-252-270-ANZ085-086-088-633-658-670-261000-
MARINE OBSERVATIONS

STATION/POSITION TIME  TEMP    WIND        PRES    WAVE   SWELL
                       AIR SEA DIR/SP/G            HT/PER HT/PER
                 (UTC) (F)     (DEG/KT/KT) (MB)    (FT/S) (FT/S)
CHESAPEAKE LIGHT NOT AVBL
64 E VA BEACH    0850   72 70   30/ 19/ 21 1010.0   16/15  15/15
DUCK             0848   73 76   30/ 27/ 31 1009.1
2 E DUCK         0900      76                N/A    10/14   7/14
OREGON INLET     0842   74 75   20/ 21/ 26 1007.7
13E OREGON INLT  0848      75                N/A    16/14  16/14
HATTERAS CG      0848   76 77   20/ 24/ 32 1005.6
DIAMOND BUOY     0850   77 78   20/ 29/ 35 1002.9   19/14  16/14
CAPE LOOKOUT     0900   76     360/ 25/ 32 1006.2
BEAUFORT LAB     0848   75 74   10/ 17/ 26 1006.8
30 SE NEW RVR IN 0808   76     360/ 25/ 33 1005.7
30 SE NEW RVR IN NOT AVBL
27 SE WRIGHTSVLE 0808   76 79   20/ 21/ 31 1006.6
5 SE WRIGHTSVLE  0808   75 78   20/ 14/ 21 1008.2
225 S CAPE HAT   0850   80 81  300/ 31/ 39  995.5   16/10
41 SE CHARLESTON 0850   77 81  340/ 14/ 17 1008.9    8/13   7/13

$$



USA.gov is the U.S. government's official web portal to all federal, state and local government web resources and services.